London,

5:42 PM EST on January 23, 2018 (GMT -0500)
London

Weather History for CYXU - August, 2013

Change the Weather History Date:

Tuesday, August 20, 2013

  Actual Average Record
Temperature  
Mean Temperature 68 °F -  
Max Temperature 80 °F 72 °F 83 °F (2016)
Min Temperature 57 °F 51 °F 48 °F (1998)
Cooling Degree Days 4    
Growing Degree Days 18 (Base 50)    
Moisture  
Dew Point 61 °F    
Average Humidity 81    
Maximum Humidity 100    
Minimum Humidity 46    
Precipitation  
Precipitation 0.00 in 0.11 in - ()
Sea Level Pressure  
Sea Level Pressure 30.12 in    
Wind  
Wind Speed 3 mph ()    
Max Wind Speed 14 mph    
Max Gust Speed 17 mph    
Visibility 8.4 miles    
Events Fog    
Averages and records for this station are not official NWS values.
T = Trace of Precipitation, MM = Missing Value Source: Averaged Metar Reports

Daily Weather History Graph

Daily Weather History Graph

Search for Another Location

Airport or City:

Trip Planner

Search our weather history database for the weather conditions in past years. The results will help you decide how hot, cold, wet, or windy it might be!

Date:

Astronomy

Aug. 20, 2013 Rise Set
Actual Time 6:36 AM EDT 8:18 PM EDT
Civil Twilight 6:05 AM EDT 8:48 PM EDT
Nautical Twilight 5:29 AM EDT 9:25 PM EDT
Astronomical Twilight 4:49 AM EDT 10:04 PM EDT
Moon 7:47 PM EDT (8/20) 6:05 AM EDT (8/20)
Length of Visible Light 14h 42m
Length of Day
13h 42m
Full, 100% of the Moon is Illuminated
Aug 20
Full
Aug 20
Full
Aug 28
Last Quarter
Sep 5
New
Sep 12
First Quarter

Hourly Weather History & Observations

Time (EDT) Temp. Heat Index Dew Point Humidity Pressure Visibility Wind Dir Wind Speed Gust Speed Precip Events Conditions
12:00 AM 64.4 °F - 60.8 °F 88% 30.08 in 15.0 mi SW 4.6 mph - N/A   Clear
1:00 AM 62.6 °F - 60.8 °F 94% 30.08 in 10.0 mi SW 4.6 mph - N/A   Clear
2:00 AM 62 °F - 60 °F 90% 30.09 in 10 mi SSW 3.5 mph - -  
2:00 AM 62.6 °F - 59.0 °F 88% 30.09 in 10.0 mi SSW 3.5 mph - N/A   Clear
3:00 AM 60.8 °F - 59.0 °F 94% 30.08 in 6.0 mi Calm Calm - N/A   Clear
4:00 AM 59.0 °F - 59.0 °F 100% 30.09 in 4.0 mi Calm Calm - N/A   Partly Cloudy
4:51 AM 59.0 °F - 59.0 °F 100% 30.10 in 2.5 mi Calm Calm - N/A   Clear
5:00 AM 57.2 °F - 57.2 °F 100% 30.10 in 1.5 mi Calm Calm - N/A   Clear
5:06 AM 59.0 °F - 57.2 °F 94% 30.10 in 0.5 mi Calm Calm - N/A Fog Fog
5:11 AM 59.0 °F - 57.2 °F 94% 30.10 in 0.4 mi Calm Calm - N/A Fog Fog
5:18 AM 59.0 °F - 59.0 °F 100% 30.10 in 1.0 mi Calm Calm - N/A   Clear
5:33 AM 57.2 °F - 57.2 °F 100% 30.10 in 2.0 mi Calm Calm - N/A   Clear
5:46 AM 57.2 °F - 55.4 °F 94% 30.10 in 3.0 mi Calm Calm - N/A   Clear
6:00 AM 57.2 °F - 57.2 °F 100% 30.10 in 5.0 mi Calm Calm - N/A   Clear
6:51 AM 57.2 °F - 55.4 °F 94% 30.12 in 2.5 mi East 2.3 mph - N/A   Clear
7:00 AM 57.2 °F - 55.4 °F 94% 30.12 in 2.5 mi ESE 2.3 mph - N/A   Clear
7:49 AM 59.0 °F - 57.2 °F 94% 30.14 in 3.0 mi North 2.3 mph - N/A   Partly Cloudy
8:00 AM 61 °F - 60 °F 96% 30.14 in 3 mi North 2.3 mph - -  
8:00 AM 60.8 °F - 60.8 °F 100% 30.14 in 3.0 mi Calm Calm - N/A   Scattered Clouds
9:00 AM 68.0 °F - 62.6 °F 83% 30.15 in 6.0 mi WNW 3.5 mph - N/A   Partly Cloudy
10:00 AM 71.6 °F - 64.4 °F 78% 30.15 in 7.0 mi WNW 5.8 mph - N/A   Scattered Clouds
11:00 AM 77.0 °F - 60.8 °F 57% 30.15 in 12.0 mi West 9.2 mph - N/A   Clear
12:00 PM 78.8 °F - 62.6 °F 57% 30.16 in 10.0 mi West 9.2 mph - N/A   Partly Cloudy
1:00 PM 78.8 °F - 60.8 °F 54% 30.15 in 10.0 mi West 9.2 mph - N/A   Scattered Clouds
2:00 PM 80 °F - 63 °F 46% 30.15 in 12 mi West 10.4 mph - -  
2:00 PM 80.6 °F 81.8 °F 62.6 °F 54% 30.14 in 12.0 mi WNW 9.2 mph 17.3 mph N/A   Mostly Cloudy
3:00 PM 80.6 °F 81.5 °F 60.8 °F 51% 30.13 in 15.0 mi West 10.4 mph - N/A   Mostly Cloudy
4:00 PM 80.6 °F 81.5 °F 60.8 °F 51% 30.12 in 15.0 mi West 8.1 mph - N/A   Scattered Clouds
5:00 PM 80.6 °F 82.3 °F 64.4 °F 58% 30.11 in 15.0 mi Calm Calm - N/A   Mostly Cloudy
6:00 PM 78.8 °F - 68.0 °F 69% 30.12 in 15.0 mi South 13.8 mph - N/A   Scattered Clouds
7:00 PM 77.0 °F - 66.2 °F 69% 30.11 in 15.0 mi South 9.2 mph - N/A   Scattered Clouds
8:00 PM 75 °F - 65 °F 63% 30.12 in 15 mi SSW 9.2 mph - -  
8:00 PM 75.2 °F - 64.4 °F 69% 30.12 in 15.0 mi SSW 8.1 mph - N/A   Scattered Clouds
9:00 PM 71.6 °F - 64.4 °F 78% 30.12 in 15.0 mi South 5.8 mph - N/A   Partly Cloudy
10:00 PM 69.8 °F - 62.6 °F 78% 30.14 in 15.0 mi SSW 5.8 mph - N/A   Clear
11:00 PM 69.8 °F - 62.6 °F 78% 30.14 in 15.0 mi SSW 9.2 mph - N/A   Clear